HYLAS 1

Last updated on Tue Sep 22 2026 00:03:12 GMT+0000 (Coordinated Universal Time)

1 37237U 10065A 26263.94337172 -.00000324 00000+0 00000+0 0 9997 2 37237 5.8787 71.7935 0003718 158.6976 232.9136 1.00638633 7858
UTC large
Height (km)
Speed (km/s)
/
Latitude / Longitude
Inclination (degrees)
Orbital Period (minutes)
Azimuth
Elevation
Range (km)
Doppler Factor

Next 0 passes for location: London (51.5072 / 0.1276)

No passes found over London.
HYLAS 1